Tracking 29892 objects as of 21-Nov-2024
HD Live streaming from Space Station
objects crossing your sky now

STARLINK-31591

Track STARLINK-31591 now!
10-day predictions
STARLINK-31591 is classified as:


NORAD ID: 59207
Int'l Code: 2024-046G
Perigee: 481.5 km
Apogee: 483.2 km
Inclination: 53.2 °
Period: 94.1 minutes
Semi major axis: 6853 km
RCS: Unknown
Launch date: March 11, 2024
Source: United States (US)
Launch site: AIR FORCE WESTERN TEST RANGE (AFWTR)
Your satellite tracking list
Your tracking list is empty




NASA's NSSDC Master Catalog

Two Line Element Set (TLE):
1 59207U 24046G   24325.66640193 -.00001245  00000-0 -29918-4 0  9997
2 59207  53.1596 197.1886 0001240  84.6938 275.4204 15.30212778 40474
Source of the keplerian elements: AFSPC